usa flag      new mexico flag

Language: 

LomaPinon History Data from Weather Underground


LomaPinon Weather Station Historical Data
 
Daily Summary for June 23, 2017 Units:  English    Metric   Both
« Previous Day
Next Day »
Daily Weekly Monthly Yearly Custom
  Current: High: Low: Average:
Temperature: 93.1 °F 100.7 °F 67.1 °F 84.7 °F
Dew Point: 23.1 °F 41.2 °F 11.8 °F 22.5 °F
Humidity: 8 % 21 % 4 % 11 %
Wind Speed: 1.0 mph 13.0 mph 0.0 mph 1.9 mph
Wind Gust: 9.0 mph 20.0 mph - -
Wind:NW - - WNW
Pressure: 29.52 in 29.59 in 29.44 in -
Precipitation: 0.00 in      
Historical Graphs
 
 
Tabular Data for June 23, 2017
Time Temperature Dew Point Pressure Wind Wind Speed Wind Gust Humidity Rainfall Rate (Hourly) solar
00:03 78.6 °F 17.4 °F 29.44 in West 1.0 mph 4.0 mph 10 % 0.00 in 0 W/m2
00:08 78.6 °F 17.4 °F 29.44 in West 2.0 mph 5.0 mph 10 % 0.00 in 0 W/m2
00:13 78.7 °F 17.5 °F 29.44 in WNW 1.0 mph 5.0 mph 10 % 0.00 in 0 W/m2
00:18 78.7 °F 17.5 °F 29.44 in Calm   4.0 mph 10 % 0.00 in 0 W/m2
00:23 78.7 °F 17.5 °F 29.44 in Calm   3.0 mph 10 % 0.00 in 0 W/m2
00:28 78.7 °F 17.5 °F 29.44 in West 2.0 mph 3.0 mph 10 % 0.00 in 0 W/m2
00:33 78.7 °F 17.5 °F 29.45 in Calm   3.0 mph 10 % 0.00 in 0 W/m2
00:38 78.7 °F 17.5 °F 29.44 in Calm   2.0 mph 10 % 0.00 in 0 W/m2
00:43 78.5 °F 17.4 °F 29.44 in Calm   2.0 mph 10 % 0.00 in 0 W/m2
00:48 78.5 °F 17.4 °F 29.44 in WNW 2.0 mph 5.0 mph 10 % 0.00 in 0 W/m2
00:53 78.4 °F 17.3 °F 29.44 in Calm   5.0 mph 10 % 0.00 in 0 W/m2
00:58 78.4 °F 17.3 °F 29.44 in Calm   4.0 mph 10 % 0.00 in 0 W/m2
01:03 78.3 °F 17.2 °F 29.44 in Calm   4.0 mph 10 % 0.00 in 0 W/m2
01:08 78.2 °F 17.1 °F 29.44 in Calm   2.0 mph 10 % 0.00 in 0 W/m2
01:13 78.1 °F 17.0 °F 29.44 in Calm   1.0 mph 10 % 0.00 in 0 W/m2
01:18 77.9 °F 16.9 °F 29.44 in Calm   2.0 mph 10 % 0.00 in 0 W/m2
01:23 77.8 °F 14.4 °F 29.44 in Calm   2.0 mph 9 % 0.00 in 0 W/m2
01:28 77.7 °F 16.7 °F 29.44 in Calm   2.0 mph 10 % 0.00 in 0 W/m2
01:33 77.6 °F 16.7 °F 29.44 in Calm   1.0 mph 10 % 0.00 in 0 W/m2
01:35 77.5 °F 16.6 °F 29.44 in Calm   1.0 mph 10 % 0.00 in 0 W/m2
01:40 77.3 °F 16.4 °F 29.44 in Calm     10 % 0.00 in 0 W/m2
01:45 77.0 °F 16.2 °F 29.44 in Calm     10 % 0.00 in 0 W/m2
01:50 76.5 °F 15.8 °F 29.44 in Calm   5.0 mph 10 % 0.00 in 0 W/m2
01:55 75.8 °F 15.3 °F 29.45 in Calm   5.0 mph 10 % 0.00 in 0 W/m2
02:00 75.3 °F 17.1 °F 29.44 in West 2.0 mph 8.0 mph 11 % 0.00 in 0 W/m2
02:05 74.8 °F 16.7 °F 29.45 in West 1.0 mph 8.0 mph 11 % 0.00 in 0 W/m2
02:10 74.7 °F 16.6 °F 29.45 in WNW 1.0 mph 3.0 mph 11 % 0.00 in 0 W/m2
02:15 74.9 °F 16.8 °F 29.45 in Calm   3.0 mph 11 % 0.00 in 0 W/m2
02:20 75.0 °F 16.9 °F 29.45 in Calm   3.0 mph 11 % 0.00 in 0 W/m2
02:25 75.0 °F 16.9 °F 29.45 in Calm   2.0 mph 11 % 0.00 in 0 W/m2
02:30 75.0 °F 16.9 °F 29.45 in Calm   2.0 mph 11 % 0.00 in 0 W/m2
02:35 75.0 °F 16.9 °F 29.45 in Calm   2.0 mph 11 % 0.00 in 0 W/m2
02:40 75.0 °F 16.9 °F 29.45 in WNW 2.0 mph 2.0 mph 11 % 0.00 in 0 W/m2
02:45 75.0 °F 16.9 °F 29.45 in Calm   2.0 mph 11 % 0.00 in 0 W/m2
02:50 75.1 °F 17.0 °F 29.45 in Calm   3.0 mph 11 % 0.00 in 0 W/m2
02:55 75.2 °F 17.0 °F 29.45 in WNW 1.0 mph 4.0 mph 11 % 0.00 in 0 W/m2
03:00 75.2 °F 17.0 °F 29.46 in Calm   4.0 mph 11 % 0.00 in 0 W/m2
03:05 75.2 °F 17.0 °F 29.46 in Calm   3.0 mph 11 % 0.00 in 0 W/m2
03:10 75.1 °F 17.0 °F 29.47 in Calm   3.0 mph 11 % 0.00 in 0 W/m2
03:16 74.2 °F 18.3 °F 29.47 in Calm   4.0 mph 12 % 0.00 in 0 W/m2
03:21 73.5 °F 17.7 °F 29.48 in Calm   4.0 mph 12 % 0.00 in 0 W/m2
03:26 73.0 °F 17.3 °F 29.48 in Calm     12 % 0.00 in 0 W/m2
03:31 72.6 °F 17.0 °F 29.48 in Calm     12 % 0.00 in 0 W/m2
03:36 72.3 °F 18.7 °F 29.49 in Calm     13 % 0.00 in 0 W/m2
03:41 72.1 °F 18.5 °F 29.49 in Calm     13 % 0.00 in 0 W/m2
03:46 71.7 °F 18.2 °F 29.49 in Calm   2.0 mph 13 % 0.00 in 0 W/m2
03:51 71.5 °F 19.8 °F 29.48 in South 1.0 mph 2.0 mph 14 % 0.00 in 0 W/m2
03:52 71.5 °F 19.8 °F 29.48 in Calm   2.0 mph 14 % 0.00 in 0 W/m2
03:57 71.4 °F 19.7 °F 29.48 in South 1.0 mph 2.0 mph 14 % 0.00 in 0 W/m2
04:02 71.3 °F 19.6 °F 29.48 in South 2.0 mph 4.0 mph 14 % 0.00 in 0 W/m2
04:07 71.2 °F 21.1 °F 29.49 in Calm   4.0 mph 15 % 0.00 in 0 W/m2
04:12 71.1 °F 22.6 °F 29.49 in Calm   2.0 mph 16 % 0.00 in 0 W/m2
04:17 71.0 °F 22.5 °F 29.49 in Calm   2.0 mph 16 % 0.00 in 0 W/m2
04:22 70.9 °F 20.9 °F 29.49 in Calm   2.0 mph 15 % 0.00 in 0 W/m2
04:27 70.9 °F 20.9 °F 29.49 in Calm     15 % 0.00 in 0 W/m2
04:32 70.8 °F 22.3 °F 29.49 in NNW 1.0 mph 1.0 mph 16 % 0.00 in 0 W/m2
04:37 70.6 °F 20.7 °F 29.50 in Calm   1.0 mph 15 % 0.00 in 0 W/m2
04:42 70.3 °F 20.4 °F 29.50 in Calm   1.0 mph 15 % 0.00 in 0 W/m2
04:47 70.0 °F 20.2 °F 29.50 in Calm     15 % 0.00 in 0 W/m2
04:52 69.7 °F 19.9 °F 29.50 in Calm     15 % 0.00 in 0 W/m2
04:57 69.5 °F 21.3 °F 29.50 in Calm     16 % 0.00 in 0 W/m2
05:02 69.3 °F 21.1 °F 29.50 in Calm     16 % 0.00 in 0 W/m2
05:03 69.3 °F 21.1 °F 29.50 in Calm     16 % 0.00 in 0 W/m2
05:08 68.9 °F 20.8 °F 29.50 in Calm   2.0 mph 16 % 0.00 in 0 W/m2
05:13 68.7 °F 20.6 °F 29.50 in Calm   2.0 mph 16 % 0.00 in 0 W/m2
05:18 68.6 °F 20.6 °F 29.50 in Calm     16 % 0.00 in 0 W/m2
05:28 68.0 °F 21.5 °F 29.51 in Calm     17 % 0.00 in 0 W/m2
05:33 67.8 °F 21.4 °F 29.51 in Calm     17 % 0.00 in 0 W/m2
05:38 67.6 °F 21.2 °F 29.52 in Calm     17 % 0.00 in 0 W/m2
05:43 67.4 °F 21.0 °F 29.52 in Calm     17 % 0.00 in 0 W/m2
05:48 67.2 °F 20.9 °F 29.53 in Calm     17 % 0.00 in 0 W/m2
05:53 67.1 °F 19.4 °F 29.53 in Calm     16 % 0.00 in 0 W/m2
05:58 67.6 °F 19.8 °F 29.53 in Calm     16 % 0.00 in 5 W/m2
06:03 67.8 °F 19.9 °F 29.53 in Calm     16 % 0.00 in 7 W/m2
06:08 67.9 °F 20.0 °F 29.54 in Calm     16 % 0.00 in 11 W/m2
06:13 67.9 °F 20.0 °F 29.54 in Calm     16 % 0.00 in 16 W/m2
06:18 67.9 °F 20.0 °F 29.54 in West 1.0 mph 3.0 mph 16 % 0.00 in 21 W/m2
06:23 68.0 °F 20.1 °F 29.54 in WNW 2.0 mph 4.0 mph 16 % 0.00 in 26 W/m2
06:28 68.1 °F 20.2 °F 29.55 in Calm   4.0 mph 16 % 0.00 in 32 W/m2
06:33 68.4 °F 20.4 °F 29.55 in Calm   3.0 mph 16 % 0.00 in 37 W/m2
06:38 68.6 °F 20.6 °F 29.55 in Calm   3.0 mph 16 % 0.00 in 44 W/m2
06:43 68.8 °F 20.7 °F 29.55 in Calm   2.0 mph 16 % 0.00 in 60 W/m2
06:48 68.8 °F 22.2 °F 29.56 in WNW 1.0 mph 2.0 mph 17 % 0.00 in 74 W/m2
06:53 68.9 °F 22.2 °F 29.56 in Calm   1.0 mph 17 % 0.00 in 77 W/m2
06:59 68.9 °F 22.2 °F 29.56 in Calm   1.0 mph 17 % 0.00 in 79 W/m2
07:04 68.9 °F 22.2 °F 29.57 in Calm   1.0 mph 17 % 0.00 in 98 W/m2
07:09 68.9 °F 22.2 °F 29.57 in Calm     17 % 0.00 in 114 W/m2
07:14 68.9 °F 23.6 °F 29.57 in Calm     18 % 0.00 in 134 W/m2
07:19 69.1 °F 22.4 °F 29.57 in Calm     17 % 0.00 in 137 W/m2
07:24 69.4 °F 24.0 °F 29.57 in Calm     18 % 0.00 in 155 W/m2
07:29 69.8 °F 24.3 °F 29.58 in Calm     18 % 0.00 in 172 W/m2
07:34 69.9 °F 25.7 °F 29.58 in Calm     19 % 0.00 in 178 W/m2
07:39 70.1 °F 27.1 °F 29.58 in Calm     20 % 0.00 in 186 W/m2
07:44 70.2 °F 26.0 °F 29.58 in Calm     19 % 0.00 in 190 W/m2
07:49 70.7 °F 25.1 °F 29.59 in Calm     18 % 0.00 in 193 W/m2
07:54 71.3 °F 24.2 °F 29.59 in Calm     17 % 0.00 in 202 W/m2
07:59 71.9 °F 26.1 °F 29.59 in WNW 1.0 mph 1.0 mph 18 % 0.00 in 221 W/m2
08:04 72.3 °F 25.0 °F 29.59 in Calm   1.0 mph 17 % 0.00 in 244 W/m2
08:09 72.7 °F 30.5 °F 29.59 in NW 3.0 mph 3.0 mph 21 % 0.00 in 271 W/m2
08:14 73.2 °F 27.1 °F 29.59 in NW 1.0 mph 3.0 mph 18 % 0.00 in 290 W/m2
08:19 73.7 °F 30.1 °F 29.59 in NNW 1.0 mph 5.0 mph 20 % 0.00 in 316 W/m2
08:24 74.3 °F 28.0 °F 29.59 in NNW 4.0 mph 7.0 mph 18 % 0.00 in 343 W/m2
08:29 74.8 °F 29.8 °F 29.59 in NNW 3.0 mph 7.0 mph 19 % 0.00 in 325 W/m2
08:34 75.3 °F 32.6 °F 29.59 in North 1.0 mph 6.0 mph 21 % 0.00 in 323 W/m2
08:39 75.7 °F 30.5 °F 29.59 in North 3.0 mph 5.0 mph 19 % 0.00 in 346 W/m2
08:44 76.2 °F 29.6 °F 29.59 in North 7.0 mph 10.0 mph 18 % 0.00 in 343 W/m2
08:49 76.8 °F 28.7 °F 29.59 in North 5.0 mph 10.0 mph 17 % 0.00 in 366 W/m2
08:54 77.2 °F 29.0 °F 29.59 in North 8.0 mph 10.0 mph 17 % 0.00 in 378 W/m2
08:59 77.6 °F 29.3 °F 29.59 in NNW 7.0 mph 10.0 mph 17 % 0.00 in 422 W/m2
09:04 78.2 °F 28.3 °F 29.59 in North 8.0 mph 10.0 mph 16 % 0.00 in 454 W/m2
09:09 78.7 °F 30.2 °F 29.59 in North 2.0 mph 12.0 mph 17 % 0.00 in 461 W/m2
09:14 79.3 °F 30.7 °F 29.59 in NNE 2.0 mph 12.0 mph 17 % 0.00 in 439 W/m2
09:19 79.7 °F 32.4 °F 29.59 in Calm   8.0 mph 18 % 0.00 in 462 W/m2
09:24 80.1 °F 34.1 °F 29.59 in North 3.0 mph 4.0 mph 19 % 0.00 in 489 W/m2
09:30 80.4 °F 34.3 °F 29.59 in Calm   4.0 mph 19 % 0.00 in 524 W/m2
09:34 80.7 °F 34.6 °F 29.59 in Calm   4.0 mph 19 % 0.00 in 570 W/m2
09:40 81.3 °F 36.4 °F 29.59 in Calm   2.0 mph 20 % 0.00 in 585 W/m2
09:45 81.8 °F 36.8 °F 29.59 in Calm   2.0 mph 20 % 0.00 in 608 W/m2
09:50 82.4 °F 37.3 °F 29.59 in Calm   2.0 mph 20 % 0.00 in 647 W/m2
09:55 83.1 °F 36.6 °F 29.59 in Calm   1.0 mph 19 % 0.00 in 661 W/m2
10:00 83.8 °F 37.1 °F 29.59 in NNW 4.0 mph 5.0 mph 19 % 0.00 in 675 W/m2
10:05 84.4 °F 37.6 °F 29.58 in Calm   5.0 mph 19 % 0.00 in 682 W/m2
10:10 84.9 °F 38.0 °F 29.59 in Calm   4.0 mph 19 % 0.00 in 694 W/m2
10:15 85.4 °F 38.4 °F 29.59 in Calm   3.0 mph 19 % 0.00 in 710 W/m2
10:20 85.9 °F 38.8 °F 29.59 in Calm   4.0 mph 19 % 0.00 in 726 W/m2
10:24 86.2 °F 39.1 °F 29.59 in Calm   4.0 mph 19 % 0.00 in 733 W/m2
10:29 86.6 °F 39.4 °F 29.58 in Calm     19 % 0.00 in 726 W/m2
10:34 86.8 °F 39.6 °F 29.58 in Calm   3.0 mph 19 % 0.00 in 731 W/m2
10:39 87.2 °F 41.2 °F 29.58 in Calm   3.0 mph 20 % 0.00 in 735 W/m2
10:49 88.1 °F 39.3 °F 29.58 in Calm   4.0 mph 18 % 0.00 in 789 W/m2
10:54 88.3 °F 39.4 °F 29.58 in Calm   5.0 mph 18 % 0.00 in 772 W/m2
10:59 88.2 °F 39.3 °F 29.58 in Calm   5.0 mph 18 % 0.00 in 779 W/m2
11:04 88.6 °F 39.7 °F 29.58 in Calm   5.0 mph 18 % 0.00 in 793 W/m2
11:09 89.1 °F 40.1 °F 29.58 in Calm   5.0 mph 18 % 0.00 in 805 W/m2
11:14 89.6 °F 37.5 °F 29.58 in Calm   5.0 mph 16 % 0.00 in 809 W/m2
11:19 90.1 °F 40.9 °F 29.58 in Calm   5.0 mph 18 % 0.00 in 828 W/m2
11:24 90.6 °F 39.8 °F 29.58 in NNE 1.0 mph 5.0 mph 17 % 0.00 in 835 W/m2
11:29 91.1 °F 31.4 °F 29.58 in NNW 4.0 mph 6.0 mph 12 % 0.00 in 863 W/m2
11:34 91.5 °F 31.7 °F 29.58 in NW 2.0 mph 6.0 mph 12 % 0.00 in 882 W/m2
11:39 91.9 °F 29.9 °F 29.58 in Calm   4.0 mph 11 % 0.00 in 909 W/m2
11:44 92.6 °F 30.4 °F 29.58 in Calm   2.0 mph 11 % 0.00 in 912 W/m2
11:49 93.2 °F 23.1 °F 29.58 in NW 1.0 mph 8.0 mph 8 % 0.00 in 921 W/m2
11:54 93.5 °F 23.4 °F 29.58 in NNW 8.0 mph 10.0 mph 8 % 0.00 in 912 W/m2
11:59 93.7 °F 23.5 °F 29.57 in Calm   13.0 mph 8 % 0.00 in 895 W/m2
12:04 93.8 °F 23.6 °F 29.57 in North 5.0 mph 13.0 mph 8 % 0.00 in 907 W/m2
12:09 94.1 °F 23.8 °F 29.57 in WNW 10.0 mph 11.0 mph 8 % 0.00 in 935 W/m2
12:14 93.9 °F 23.7 °F 29.57 in NNW 11.0 mph 13.0 mph 8 % 0.00 in 896 W/m2
12:19 94.1 °F 26.6 °F 29.57 in North 6.0 mph 13.0 mph 9 % 0.00 in 912 W/m2
12:24 94.3 °F 26.8 °F 29.57 in WNW 8.0 mph 14.0 mph 9 % 0.00 in 889 W/m2
12:29 94.3 °F 26.8 °F 29.56 in NNW 1.0 mph 14.0 mph 9 % 0.00 in 911 W/m2
12:34 94.5 °F 29.5 °F 29.57 in Calm   13.0 mph 10 % 0.00 in 928 W/m2
12:39 94.7 °F 27.1 °F 29.56 in NNW 3.0 mph 11.0 mph 9 % 0.00 in 891 W/m2
12:44 95.0 °F 27.3 °F 29.57 in WNW 13.0 mph 20.0 mph 9 % 0.00 in 925 W/m2
12:49 95.4 °F 24.8 °F 29.56 in NNW 3.0 mph 20.0 mph 8 % 0.00 in 969 W/m2
12:54 95.9 °F 25.1 °F 29.56 in NNW 13.0 mph 13.0 mph 8 % 0.00 in 918 W/m2
12:59 95.9 °F 25.1 °F 29.56 in Calm   15.0 mph 8 % 0.00 in 977 W/m2
13:04 95.8 °F 25.1 °F 29.55 in WNW 2.0 mph 15.0 mph 8 % 0.00 in 977 W/m2
13:09 96.4 °F 25.5 °F 29.55 in Calm   11.0 mph 8 % 0.00 in 960 W/m2
13:11 96.6 °F 25.7 °F 29.55 in Calm   11.0 mph 8 % 0.00 in 976 W/m2
13:16 97.4 °F 26.2 °F 29.55 in West 5.0 mph 12.0 mph 8 % 0.00 in 970 W/m2
13:21 97.8 °F 29.4 °F 29.55 in West 1.0 mph 12.0 mph 9 % 0.00 in 983 W/m2
13:26 98.4 °F 23.8 °F 29.55 in Calm   9.0 mph 7 % 0.00 in 977 W/m2
13:31 98.6 °F 23.9 °F 29.54 in Calm   4.0 mph 7 % 0.00 in 990 W/m2
13:36 99.3 °F 27.6 °F 29.54 in NNW 7.0 mph 7.0 mph 8 % 0.00 in 991 W/m2
13:41 99.4 °F 24.5 °F 29.54 in Calm   9.0 mph 7 % 0.00 in 969 W/m2
13:46 99.3 °F 24.4 °F 29.53 in North 1.0 mph 9.0 mph 7 % 0.00 in 954 W/m2
13:51 99.2 °F 24.3 °F 29.53 in Calm   8.0 mph 7 % 0.00 in 988 W/m2
13:56 99.3 °F 20.8 °F 29.53 in Calm   7.0 mph 6 % 0.00 in 1007 W/m2
14:01 99.3 °F 20.8 °F 29.53 in WNW 1.0 mph 18.0 mph 6 % 0.00 in 1027 W/m2
14:06 99.2 °F 20.7 °F 29.53 in NW 8.0 mph 18.0 mph 6 % 0.00 in 1076 W/m2
14:11 99.3 °F 20.8 °F 29.53 in Calm   14.0 mph 6 % 0.00 in 1007 W/m2
14:16 99.6 °F 21.0 °F 29.52 in Calm   13.0 mph 6 % 0.00 in 1009 W/m2
14:21 100.1 °F 21.3 °F 29.52 in NNW 9.0 mph 17.0 mph 6 % 0.00 in 981 W/m2
14:26 99.9 °F 16.9 °F 29.52 in WNW 2.0 mph 17.0 mph 5 % 0.00 in 960 W/m2
14:31 100.6 °F 17.4 °F 29.52 in NW 10.0 mph 13.0 mph 5 % 0.00 in 983 W/m2
14:36 100.5 °F 17.3 °F 29.52 in Calm   11.0 mph 5 % 0.00 in 976 W/m2
14:40 100.7 °F 21.8 °F 29.52 in NW 3.0 mph 11.0 mph 6 % 0.00 in 949 W/m2
14:45 100.5 °F 21.6 °F 29.52 in WNW 4.0 mph 14.0 mph 6 % 0.00 in 1002 W/m2
14:50 100.2 °F 25.1 °F 29.52 in NNW 8.0 mph 14.0 mph 7 % 0.00 in 998 W/m2
14:55 100.4 °F 17.3 °F 29.52 in Calm   9.0 mph 5 % 0.00 in 1030 W/m2
15:00 100.6 °F 17.4 °F 29.52 in Calm   7.0 mph 5 % 0.00 in 221 W/m2
15:05 100.4 °F 17.3 °F 29.52 in NNW 10.0 mph 16.0 mph 5 % 0.00 in 1016 W/m2
15:10 100.0 °F 17.0 °F 29.52 in Calm   16.0 mph 5 % 0.00 in 172 W/m2
15:15 99.5 °F 20.9 °F 29.51 in NW 8.0 mph 12.0 mph 6 % 0.00 in 425 W/m2
15:20 99.0 °F 20.5 °F 29.52 in NNW 1.0 mph 12.0 mph 6 % 0.00 in 172 W/m2
15:25 99.0 °F 16.3 °F 29.51 in WNW 9.0 mph 14.0 mph 5 % 0.00 in 884 W/m2
15:30 99.1 °F 16.4 °F 29.52 in NNW 12.0 mph 18.0 mph 5 % 0.00 in 840 W/m2
15:31 99.2 °F 20.7 °F 29.51 in North 8.0 mph 18.0 mph 6 % 0.00 in 844 W/m2
15:36 99.2 °F 16.4 °F 29.51 in NW 2.0 mph 18.0 mph 5 % 0.00 in 858 W/m2
15:41 98.8 °F 16.1 °F 29.51 in Calm   11.0 mph 5 % 0.00 in 272 W/m2
15:46 98.8 °F 16.1 °F 29.51 in NW 6.0 mph 18.0 mph 5 % 0.00 in 791 W/m2
15:51 98.9 °F 16.2 °F 29.50 in SW 2.0 mph 18.0 mph 5 % 0.00 in 772 W/m2
15:56 99.4 °F 16.6 °F 29.50 in Calm   14.0 mph 5 % 0.00 in 763 W/m2
16:01 99.9 °F 11.8 °F 29.50 in West 1.0 mph 14.0 mph 4 % 0.00 in 742 W/m2
16:06 100.5 °F 12.2 °F 29.50 in NW 7.0 mph 12.0 mph 4 % 0.00 in 731 W/m2
16:11 100.6 °F 17.4 °F 29.51 in WNW 1.0 mph 17.0 mph 5 % 0.00 in 722 W/m2
16:16 100.7 °F 12.4 °F 29.50 in Calm   17.0 mph 4 % 0.00 in 708 W/m2
16:21 100.5 °F 17.3 °F 29.50 in NNW 2.0 mph 11.0 mph 5 % 0.00 in 698 W/m2
16:27 100.2 °F 17.1 °F 29.50 in NNE 10.0 mph 11.0 mph 5 % 0.00 in 680 W/m2
16:32 100.3 °F 17.2 °F 29.50 in WNW 5.0 mph 11.0 mph 5 % 0.00 in 657 W/m2
16:37 100.5 °F 12.2 °F 29.50 in SW 8.0 mph 11.0 mph 4 % 0.00 in 659 W/m2
16:42 100.2 °F 12.0 °F 29.50 in WSW 2.0 mph 11.0 mph 4 % 0.00 in 649 W/m2
16:47 100.2 °F 12.0 °F 29.50 in SW 5.0 mph 10.0 mph 4 % 0.00 in 617 W/m2
16:52 100.2 °F 12.0 °F 29.50 in North 8.0 mph 13.0 mph 4 % 0.00 in 589 W/m2
16:57 100.2 °F 17.1 °F 29.50 in West 4.0 mph 13.0 mph 5 % 0.00 in 582 W/m2
17:02 100.1 °F 17.1 °F 29.50 in Calm   13.0 mph 5 % 0.00 in 573 W/m2
17:07 100.1 °F 11.9 °F 29.50 in WNW 8.0 mph 12.0 mph 4 % 0.00 in 548 W/m2
17:12 99.9 °F 16.9 °F 29.50 in NW 3.0 mph 12.0 mph 5 % 0.00 in 526 W/m2
17:17 99.6 °F 21.0 °F 29.50 in NW 4.0 mph 12.0 mph 6 % 0.00 in 492 W/m2
17:22 99.3 °F 16.5 °F 29.50 in Calm   13.0 mph 5 % 0.00 in 462 W/m2
17:27 99.1 °F 16.4 °F 29.50 in Calm   13.0 mph 5 % 0.00 in 450 W/m2
17:32 98.6 °F 16.0 °F 29.50 in NW 1.0 mph 10.0 mph 5 % 0.00 in 434 W/m2
17:37 98.0 °F 15.6 °F 29.50 in NNW 7.0 mph 12.0 mph 5 % 0.00 in 352 W/m2
17:42 97.5 °F 19.5 °F 29.50 in West 12.0 mph 12.0 mph 6 % 0.00 in 93 W/m2
17:47 96.9 °F 19.0 °F 29.50 in NW 7.0 mph 12.0 mph 6 % 0.00 in 95 W/m2
17:52 96.6 °F 18.8 °F 29.50 in NW 2.0 mph 12.0 mph 6 % 0.00 in 88 W/m2
17:57 96.4 °F 18.7 °F 29.50 in WNW 5.0 mph 8.0 mph 6 % 0.00 in 83 W/m2
18:02 96.3 °F 14.4 °F 29.50 in WNW 6.0 mph 16.0 mph 5 % 0.00 in 79 W/m2
18:07 96.2 °F 18.5 °F 29.50 in North 1.0 mph 16.0 mph 6 % 0.00 in 76 W/m2
18:12 96.0 °F 14.2 °F 29.50 in Calm   14.0 mph 5 % 0.00 in 74 W/m2
18:17 95.8 °F 21.9 °F 29.50 in North 1.0 mph 7.0 mph 7 % 0.00 in 70 W/m2
18:22 95.6 °F 18.1 °F 29.50 in Calm   5.0 mph 6 % 0.00 in 72 W/m2
18:28 95.6 °F 18.1 °F 29.50 in WNW 1.0 mph 9.0 mph 6 % 0.00 in 70 W/m2
18:33 95.5 °F 18.0 °F 29.50 in NNW 9.0 mph 10.0 mph 6 % 0.00 in 70 W/m2
18:38 95.4 °F 21.6 °F 29.50 in NNW 12.0 mph 13.0 mph 7 % 0.00 in 221 W/m2
18:43 95.5 °F 18.0 °F 29.50 in NW 1.0 mph 13.0 mph 6 % 0.00 in 207 W/m2
18:48 95.8 °F 18.3 °F 29.50 in NW 1.0 mph 12.0 mph 6 % 0.00 in 192 W/m2
18:53 95.9 °F 21.9 °F 29.50 in Calm   10.0 mph 7 % 0.00 in 178 W/m2
18:58 96.0 °F 18.4 °F 29.51 in WNW 4.0 mph 12.0 mph 6 % 0.00 in 163 W/m2
19:03 95.9 °F 18.3 °F 29.51 in WNW 5.0 mph 12.0 mph 6 % 0.00 in 149 W/m2
19:08 95.6 °F 24.9 °F 29.51 in Calm   9.0 mph 8 % 0.00 in 130 W/m2
19:13 95.4 °F 24.8 °F 29.51 in NW 5.0 mph 10.0 mph 8 % 0.00 in 58 W/m2
19:18 94.9 °F 21.2 °F 29.51 in Calm   10.0 mph 7 % 0.00 in 42 W/m2
19:23 94.5 °F 20.9 °F 29.52 in WNW 3.0 mph 6.0 mph 7 % 0.00 in 88 W/m2
19:28 94.1 °F 26.6 °F 29.52 in Calm   6.0 mph 9 % 0.00 in 79 W/m2
19:33 93.8 °F 26.4 °F 29.52 in Calm   5.0 mph 9 % 0.00 in 70 W/m2
19:38 93.7 °F 23.5 °F 29.52 in NNW 4.0 mph 8.0 mph 8 % 0.00 in 67 W/m2
19:43 93.2 °F 23.1 °F 29.52 in NW 4.0 mph 8.0 mph 8 % 0.00 in 56 W/m2
19:48 93.1 °F 23.1 °F 29.52 in NW 1.0 mph 9.0 mph 8 % 0.00 in 42 W/m2
Rio Rancho, New Mexico Weather
Compliments of Weather Underground - 2.25 mb
top